Home   Weather   Rohrbach   Past weeks

Flag for Austria Past Weather in Rohrbach, Upper Austria, Austria — Yesterday and Last 2 Weeks

Now
27 °F

Chilly.


Feels Like: 27 °F
Forecast: 15 / 33 °F
Wind: 1 mph from Northeast

Location: Rohrbach

Current Time: Dec 6, 2016 at 3:10:22 pm

Latest Report: Dec 6, 2016 at 2:00 pm


Visibility: N/A

Pressure: 30.53 "Hg (28.28 "Hg at 605m altitude)

Humidity: 86%

Dew Point: 23 °F

Location of RohrbachLocation

Past Weather in Rohrbach — Graph

°F

Rohrbach Temperature Yesterday

Maximum temperature yesterday: 25 °F (at 12:00 am)
Minimum temperature yesterday: 19 °F (at 6:00 am)
Average temperature yesterday: 23 °F

High & Low Weather Summary for the Past Weeks

 TemperatureHumidityPressure
High59 °F (Nov 21, 1:00 pm)100% (Nov 23, 11:00 pm)30.63 "Hg (Nov 23, 11:00 pm)
Low17 °F (Nov 30, 6:00 am)49% (Nov 28, 1:00 pm)29.75 "Hg (Nov 21, 1:00 pm)
Average34 °F83%30.24 "Hg
* Reported Nov 21 1:00 pm — Dec 6 1:00 pm, Rohrbach, Weather by CustomWeather, © 2016

Note: Actual official high and low records may vary slightly from our data, if they occured in-between our weather recording intervals... More about our weather records

Advertising

Rohrbach Weather History for the Previous 24 Hours

Scroll right to see more
 ConditionsComfort  
Time TempWeatherWind HumidityBarometerVisibility
1:00 pm
Tue, Dec 6
26 °FChilly.2 mph86%30.53 "HgN/A
12:00 pm25 °FChilly.2 mph89%30.54 "HgN/A
11:00 am25 °FCold.2 mph92%30.54 "HgN/A
10:00 am23 °FCold.2 mph93%30.54 "HgN/A
9:00 am23 °FCold.2 mph94%30.51 "HgN/A
8:00 am22 °FCold.1 mph94%30.51 "HgN/A
7:00 am22 °FCold.1 mph94%30.50 "HgN/A
6:00 am21 °FCold.1 mph95%30.50 "HgN/A
5:00 am21 °FCold.1 mph95%30.49 "HgN/A
4:00 am21 °FCold.1 mph95%30.49 "HgN/A
3:00 am21 °FCold.1 mph93%30.49 "HgN/A
2:00 am21 °FCold.1 mph95%30.49 "HgN/A
12:00 am23 °FCold.No wind96%30.47 "HgN/A
11:00 pm
Mon, Dec 5
22 °FCold.1 mph98%30.48 "HgN/A
10:00 pm23 °FCold.1 mph98%30.47 "HgN/A
9:00 pm23 °FCold.No wind96%30.47 "HgN/A
8:00 pm24 °FCold.1 mph96%30.46 "HgN/A
7:00 pm24 °FCold.1 mph96%30.45 "HgN/A
6:00 pm24 °FCold.No wind96%30.45 "HgN/A
5:00 pm24 °FCold.1 mph96%30.45 "HgN/A
3:00 pm24 °FCold.1 mph94%30.45 "HgN/A
Weather by CustomWeather, © 2016

See weather overviewHow to use our weather pages